AirNav   Air Wisconsin Up To $57,000 Bonus
 
 1264 users online  

8S3 Santiam Junction State Airport
Santiam Junction, Oregon, USA

GOING TO SANTIAM JUNCTION?


FAA INFORMATION EFFECTIVE 05 DECEMBER 2019

Location

FAA Identifier: 8S3
Lat/Long: 44-26-04.4000N 121-56-32.2000W
44-26.073333N 121-56.536667W
44.4345556,-121.9422778
(estimated)
Elevation: 3780 ft. / 1152 m (estimated)
Variation: 19E (1985)
Time zone: UTC -8 (UTC -7 during Daylight Saving Time)
Zip code: 97730

Airport Operations

Airport use: Open to the public
Activation date: 09/1945
Control tower: no
ARTCC: SEATTLE CENTER
FSS: MC MINNVILLE FLIGHT SERVICE STATION
NOTAMs facility: MMV (NOTAM-D service available)
Attendance: UNATNDD
STATE HIGHWAY MAINTENANCE STATION NEARBY.
Wind indicator: yes
Segmented circle: yes

Airport Communications

CTAF: 122.9

Nearby radio navigation aids

VOR radial/distance  VOR name  Freq  Var
DSDr274/29.5DESCHUTES VORTAC117.6018E

Airport Services

Airframe service: NONE
Powerplant service: NONE
Bottled oxygen: NONE
Bulk oxygen: NONE

Runway Information

Runway 6/24

Dimensions: 2800 x 150 ft. / 853 x 46 m
Surface: gravel, in good condition
VOLCANIC CINDERS.
Runway edge markings: 06/24 MKD WITH WHITE TIRES AT CORNERS.
Operational restrictions: LAND TO EAST TKOF TO WEST.
RUNWAY 6  RUNWAY 24
Traffic pattern: leftleft
Obstructions: 32 ft. trees, 160 ft. from runway, 100 ft. right of centerline, 5:1 slope to clear200 ft. trees, 450 ft. from runway, 2:1 slope to clear

Airport Ownership and Management from official FAA records

Ownership: Publicly-owned
Owner: OREGON DEPT OF AVIATION
3040 25TH ST SE
SALEM, OR 97302
Phone 503-378-4880
Manager: STATE AIRPORTS MGR
3040 25TH ST SE
SALEM, OR 97302
Phone (503) 378-2523

Airport Operational Statistics

Aircraft operations: 206/year *
97% transient general aviation
3% military
* for 12-month period ending 13 August 2019

Additional Remarks

ARPT SURROUNDED BY TREES AND HIGH TERRAIN.
OWNER ADVISES CONTACT WITH DEPT OF AVIATION (503-378-4880) PRIOR TO USE.
ARPT CLSD NOV 1- MAY 1 OR WHEN COVERED BY SNOW.
RY THLDS MARKED WITH WHITE TIRES AT CORNERS.
FOR CD CTC SEATTLE ARTCC AT 253-351-3694.

Instrument Procedures

There are no published instrument procedures at 8S3.

Some nearby airports with instrument procedures:

KRDM - Roberts Field Airport (36 nm E)
S33 - Madras Municipal Airport (37 nm NE)
KBDN - Bend Municipal Airport (38 nm SE)
S21 - Sunriver Airport (40 nm SE)
S39 - Prineville Airport (45 nm E)
 
Loc | Ops | Rwys | IFR | FBO | Links
Com | Nav | Svcs | Stats | Notes
Area around 8S3 (Santiam Junction State Airport)
 
Road maps at: MapQuest Bing Google
 
Aerial photo
WARNING: Photo may not be current or correct
Aerial photo of 8S3 (Santiam Junction State Airport)
Photo taken 22-Jun-2014
looking northeast.

Do you have a better or more recent aerial photo of Santiam Junction State Airport that you would like to share? If so, please send us your photo.

 
Sectional chart

 
Airport distance calculator
Flying to Santiam Junction State Airport? Find the distance to fly.

From to 8S3

Sunrise and sunset
Times for 11-Dec-2019
 Local
(UTC-8)
 Zulu
(UTC)
Morning civil twilight07:0215:02
Sunrise07:3515:35
Sunset16:2700:27
Evening civil twilight17:0001:00

Current date and time
Zulu (UTC)  11-Dec-2019 17:10:46
Local (UTC-8)  11-Dec-2019 09:10:46
 
METAR
KRDM 
36nm E 
111656Z 11004KT 10SM SCT041 04/01 A3006 RMK AO2 SLP189 T00390006
KS33 
37nm NE 
111655Z AUTO 00000KT 2 1/2SM BR BKN047 00/00 A3008 RMK AO2 P0001
KBDN 
38nm SE 
111655Z AUTO 21015G21KT 10SM CLR 04/01 A3006 RMK AO2
TAF
KRDM 
36nm E 
111120Z 1112/1212 17007KT P6SM OVC050 FM120200 18008KT 6SM -RA BR OVC025 FM120500 18013KT 6SM -RA BR OVC015
KBDN 
38nm SE 
111120Z 1112/1212 19007KT P6SM OVC050 FM120000 20011KT 6SM -RA BR OVC025 FM120300 20012KT 6SM -RA BR OVC015
NOTAMs
Click for the latest NOTAMs
NOTAMs are issued by the DoD/FAA and will open in a separate window not controlled by AirNav.

 

 
 

Would you like to see your business listed on this page?

 If your business provides an interesting product or service to pilots, flight crews, aircraft, or users of the Santiam Junction State Airport, you should consider listing it here.  To start the listing process, click on the button below
 
Add a business
 

Other Pages about Santiam Junction State Airport

www.oregon.gov/...
 
Update a link
 
Copyright © AirNav, LLC. All rights reserved. Privacy Policy  Contact